Simultaneous Nadir Overpasses (SNOs) Predictions

Prediction of SNOs between METOP-B and NOAA-19 Satellite Orbit:

Table of predicted SNOs for the next 14.0 days since TLE Epoch: 5/11/2024
Index Date (METOP-B) Time (METOP-B) Lat,Lon (METOP-B) SZA (METOP-B ) Date (NOAA-19) Time (NOAA-19) Lat,Lon (NOAA-19) SZA (NOAA-19 ) Distance(km) Time Diff (sec)
1 05/15/2024 01:49:48 -76.31, -28.39 122.72 05/15/2024 01:48:53 -76.31, -28.41 122.72 0.55 55
2 05/15/2024 02:40:24 76.50, 139.59 57.46 05/15/2024 02:39:42 76.49, 139.55 57.45 1.35 42
3 05/15/2024 03:30:58 -76.83, -51.82 122.21 05/15/2024 03:30:39 -76.83, -51.81 122.21 0.24 19
4 05/15/2024 04:21:35 76.96, 116.04 57.92 05/15/2024 04:21:29 76.96, 116.02 57.92 0.50 6
5 05/15/2024 05:12:10 -77.24, -75.48 121.79 05/15/2024 05:12:27 -77.25, -75.45 121.79 1.04 17
6 05/15/2024 06:02:47 77.37, 92.42 58.34 05/15/2024 06:03:17 77.38, 92.44 58.35 0.40 30
7 05/15/2024 06:53:23 -77.60, -99.23 121.42 05/15/2024 06:54:16 -77.61, -99.16 121.40 1.89 53



Historial Predications of SNOs between METOP-B and NOAA-19
